Location: Heilbronn
(49.1548°N, 9.2780°E)
Time: 11:19:31
(UTC+01:00)

ISS - Pass Details

Date: 12 November 2017
Orbit: 402 x 407 km, 51.6° (Epoch: 19 November)

Event Time Altitude Azimuth Distance (km) Brightness Sun altitude
Exits shadow 04:20:03 12° 76° (ENE) 1,336 -0.4 -30.7°
Drops below altitude 10° 04:20:26 10° 78° (ENE) 1,488 -0.1 -30.6°
Sets 04:22:28 0° 83° (E) 2,317 1.2 -30.3°
